| time (UTC) | temp F | wind direction | speed MPH | gust MPH | rain 1hr in | rain 24hr in | rain mn in | humidity % | barometer mb |
| 20260906013909 | 91 | 61 | 4.0 | 6.0 | 0.00 | 0.00 | 0.00 | ||
| 20260906013408 | 91 | 127 | 2.0 | 4.0 | 0.00 | 0.00 | 0.00 | ||
| 20260906012408 | 92 | 151 | 5.0 | 6.0 | 0.00 | 0.00 | 0.00 | ||
| 20260906010408 | 95 | 73 | 0.0 | 0.0 | 0.00 | 0.00 | 0.00 | ||
| 20260906005908 | 95 | 48 | 0.0 | 1.0 | 0.00 | 0.00 | 0.00 | ||
| 20260906005408 | 95 | 83 | 0.0 | 2.0 | 0.00 | 0.00 | 0.00 | ||
| 20260905233409 | 100 | 69 | 0.0 | 0.0 | 0.00 | 0.00 | 0.00 | ||
| 20260905231909 | 100 | 56 | 1.0 | 1.0 | 0.00 | 0.00 | 0.00 | ||
| 20260905231409 | 101 | 100 | 2.0 | 4.0 | 0.00 | 0.00 | 0.00 | ||
| 20260905230409 | 100 | 52 | 3.0 | 1.0 | 0.00 | 0.00 | 0.00 | ||
| 20260905225909 | 101 | 25 | 1.0 | 4.0 | 0.00 | 0.00 | 0.00 | ||
| 20260905224409 | 101 | 87 | 3.0 | 8.0 | 0.00 | 0.00 | 0.00 | ||
| 20260905222909 | 101 | 180 | 2.0 | 2.0 | 0.00 | 0.00 | 0.00 | ||
| 20260905221911 | 101 | 63 | 1.0 | 2.0 | 0.00 | 0.00 | 0.00 | ||
| 20260905221409 | 101 | 173 | 2.0 | 1.0 | 0.00 | 0.00 | 0.00 | ||
| 20260905213909 | 102 | 306 | 0.0 | 0.0 | 0.00 | 0.00 | 0.00 | ||
| 20260905212909 | 101 | 80 | 3.0 | 4.0 | 0.00 | 0.00 | 0.00 | ||
| 20260905205909 | 103 | 13 | 3.0 | 1.0 | 0.00 | 0.00 | 0.00 | ||
| 20260905204409 | 105 | 144 | 0.0 | 3.0 | 0.00 | 0.00 | 0.00 | ||
| 20260905203909 | 104 | 59 | 3.0 | 4.0 | 0.00 | 0.00 | 0.00 | ||
| 20260905203409 | 101 | 80 | 2.0 | 2.0 | 0.00 | 0.00 | 0.00 | ||
| 20260905202909 | 103 | 65 | 0.0 | 0.0 | 0.00 | 0.00 | 0.00 | ||
| 20260905202409 | 103 | 359 | 5.0 | 5.0 | 0.00 | 0.00 | 0.00 | ||
| 20260905201909 | 104 | 166 | 1.0 | 4.0 | 0.00 | 0.00 | 0.00 | ||
| 20260905201409 | 100 | 72 | 2.0 | 4.0 | 0.00 | 0.00 | 0.00 | ||
| 20260905200909 | 101 | 176 | 3.0 | 6.0 | 0.00 | 0.00 | 0.00 | ||
| 20260905200409 | 101 | 134 | 2.0 | 4.0 | 0.00 | 0.00 | 0.00 | ||
| 20260905195409 | 103 | 235 | 4.0 | 7.0 | 0.00 | 0.00 | 0.00 | ||
| 20260905194411 | 103 | 231 | 4.0 | 5.0 | 0.00 | 0.00 | 0.00 | ||
| 20260905193909 | 103 | 45 | 3.0 | 3.0 | 0.00 | 0.00 | 0.00 | ||
| 20260905193409 | 103 | 49 | 1.0 | 0.0 | 0.00 | 0.00 | 0.00 | ||
| 20260905192910 | 102 | 199 | 3.0 | 5.0 | 0.00 | 0.00 | 0.00 | ||
| 20260905192410 | 104 | 176 | 3.0 | 4.0 | 0.00 | 0.00 | 0.00 | ||
| 20260905191410 | 103 | 300 | 1.0 | 0.0 | 0.00 | 0.00 | 0.00 | ||
| 20260905190910 | 102 | 82 | 1.0 | 2.0 | 0.00 | 0.00 | 0.00 | ||
| 20260905185910 | 104 | 194 | 1.0 | 2.0 | 0.00 | 0.00 | 0.00 | ||
| 20260905185410 | 103 | 21 | 1.0 | 3.0 | 0.00 | 0.00 | 0.00 | ||
| 20260905184910 | 101 | 0 | 0.0 | 0.0 | 0.00 | 0.00 | 0.00 | ||
| 20260905184410 | 97 | 82 | 1.0 | 2.0 | 0.00 | 0.00 | 0.00 | ||
| 20260905183910 | 98 | 83 | 2.0 | 2.0 | 0.00 | 0.00 | 0.00 | ||
| 20260905183410 | 100 | 13 | 1.0 | 0.0 | 0.00 | 0.00 | 0.00 | ||
| 20260905182909 | 103 | 63 | 2.0 | 4.0 | 0.00 | 0.00 | 0.00 | ||
| 20260905182409 | 103 | 90 | 3.0 | 4.0 | 0.00 | 0.00 | 0.00 | ||
| 20260905181910 | 101 | 308 | 1.0 | 0.0 | 0.00 | 0.00 | 0.00 | ||
| 20260905180910 | 101 | 162 | 4.0 | 4.0 | 0.00 | 0.00 | 0.00 | ||
| 20260905180410 | 99 | 76 | 0.0 | 0.0 | 0.00 | 0.00 | 0.00 | ||
| 20260905175910 | 100 | 25 | 4.0 | 5.0 | 0.00 | 0.00 | 0.00 | ||
| 20260905175410 | 99 | 179 | 4.0 | 4.0 | 0.00 | 0.00 | 0.00 | ||
| 20260905174910 | 100 | 191 | 3.0 | 4.0 | 0.00 | 0.00 | 0.00 | ||
| 20260905174410 | 99 | 193 | 2.0 | 5.0 | 0.00 | 0.00 | 0.00 | ||
| 20260905173410 | 99 | 208 | 2.0 | 4.0 | 0.00 | 0.00 | 0.00 | ||
| 20260905172410 | 100 | 265 | 0.0 | 7.0 | 0.00 | 0.00 | 0.00 | ||
| 20260905171909 | 99 | 70 | 4.0 | 3.0 | 0.00 | 0.00 | 0.00 | ||
| 20260905170409 | 98 | 62 | 2.0 | 5.0 | 0.00 | 0.00 | 0.00 | ||
| 20260905165910 | 99 | 348 | 1.0 | 1.0 | 0.00 | 0.00 | 0.00 | ||
| 20260905164909 | 95 | 208 | 2.0 | 3.0 | 0.00 | 0.00 | 0.00 | ||
| 20260905164410 | 96 | 252 | 2.0 | 4.0 | 0.00 | 0.00 | 0.00 | ||
| 20260905163909 | 96 | 287 | 3.0 | 3.0 | 0.00 | 0.00 | 0.00 | ||
| 20260905163410 | 97 | 222 | 0.0 | 4.0 | 0.00 | 0.00 | 0.00 | ||
| 20260905162409 | 95 | 11 | 2.0 | 3.0 | 0.00 | 0.00 | 0.00 | ||
| 20260905161910 | 94 | 221 | 0.0 | 5.0 | 0.00 | 0.00 | 0.00 | ||
| 20260905161409 | 94 | 273 | 3.0 | 5.0 | 0.00 | 0.00 | 0.00 | ||
| 20260905160410 | 93 | 193 | 1.0 | 2.0 | 0.00 | 0.00 | 0.00 | ||
| 20260905155909 | 93 | 252 | 3.0 | 5.0 | 0.00 | 0.00 | 0.00 | ||
| 20260905154909 | 92 | 283 | 3.0 | 3.0 | 0.00 | 0.00 | 0.00 | ||
| 20260905154409 | 91 | 70 | 0.0 | 4.0 | 0.00 | 0.00 | 0.00 | ||
| 20260905153910 | 90 | 303 | 2.0 | 3.0 | 0.00 | 0.00 | 0.00 | ||
| 20260905153410 | 90 | 256 | 2.0 | 3.0 | 0.00 | 0.00 | 0.00 | ||
| 20260905152410 | 89 | 208 | 1.0 | 6.0 | 0.00 | 0.00 | 0.00 | ||
| 20260905151910 | 89 | 183 | 4.0 | 4.0 | 0.00 | 0.00 | 0.00 | ||
| 20260905150410 | 89 | 303 | 0.0 | 3.0 | 0.00 | 0.00 | 0.00 | ||
| 20260905144410 | 86 | 267 | 2.0 | 3.0 | 0.00 | 0.00 | 0.00 | ||
| 20260905143411 | 85 | 173 | 1.0 | 2.0 | 0.00 | 0.00 | 0.00 | ||
| 20260905142410 | 84 | 158 | 2.0 | 0.0 | 0.00 | 0.00 | 0.00 | ||
| 20260905141411 | 83 | 327 | 1.0 | 2.0 | 0.00 | 0.00 | 0.00 | ||
| 20260905140415 | 82 | 242 | 2.0 | 2.0 | 0.00 | 0.00 | 0.00 | ||
| 20260905140411 | 82 | 242 | 2.0 | 2.0 | 0.00 | 0.00 | 0.00 | ||
| 20260905135411 | 82 | 63 | 1.0 | 2.0 | 0.00 | 0.00 | 0.00 | ||
| 20260905134912 | 82 | 279 | 0.0 | 3.0 | 0.00 | 0.00 | 0.00 | ||
| 20260905131415 | 79 | 249 | 0.0 | 2.0 | 0.00 | 0.00 | 0.00 | ||
| 20260905131411 | 79 | 249 | 0.0 | 2.0 | 0.00 | 0.00 | 0.00 | ||
| 20260905130411 | 78 | 132 | 0.0 | 0.0 | 0.00 | 0.00 | 0.00 | ||
| 20260905125411 | 78 | 132 | 0.0 | 0.0 | 0.00 | 0.00 | 0.00 | ||
| 20260905121411 | 78 | 132 | 0.0 | 0.0 | 0.00 | 0.00 | 0.00 | ||
| 20260905115411 | 78 | 111 | 0.0 | 0.0 | 0.00 | 0.00 | 0.00 | ||
| 20260905114414 | 78 | 111 | 0.0 | 0.0 | 0.00 | 0.00 | 0.00 | ||
| 20260905114410 | 78 | 111 | 0.0 | 0.0 | 0.00 | 0.00 | 0.00 | ||
| 20260905113411 | 78 | 111 | 0.0 | 0.0 | 0.00 | 0.00 | 0.00 | ||
| 20260905112412 | 77 | 111 | 0.0 | 0.0 | 0.00 | 0.00 | 0.00 | ||
| 20260905111411 | 77 | 111 | 0.0 | 0.0 | 0.00 | 0.00 | 0.00 | ||
| 20260905110412 | 77 | 111 | 0.0 | 0.0 | 0.00 | 0.00 | 0.00 | ||
| 20260905105411 | 77 | 111 | 0.0 | 0.0 | 0.00 | 0.00 | 0.00 | ||
| 20260905104411 | 77 | 111 | 0.0 | 0.0 | 0.00 | 0.00 | 0.00 | ||
| 20260905103448 | 78 | 111 | 0.0 | 0.0 | 0.00 | 0.00 | 0.00 | ||
| 20260905103411 | 78 | 111 | 0.0 | 0.0 | 0.00 | 0.00 | 0.00 | ||
| 20260905095411 | 80 | 111 | 0.0 | 0.0 | 0.00 | 0.00 | 0.00 | ||
| 20260905094412 | 80 | 206 | 1.0 | 1.0 | 0.00 | 0.00 | 0.00 | ||
| 20260905093412 | 80 | 31 | 0.0 | 0.0 | 0.00 | 0.00 | 0.00 | ||
| 20260905082412 | 82 | 179 | 0.0 | 0.0 | 0.00 | 0.00 | 0.00 | ||
| 20260905081412 | 82 | 207 | 1.0 | 1.0 | 0.00 | 0.00 | 0.00 | ||
| 20260905080932 | 82 | 224 | 2.0 | 3.0 | 0.00 | 0.00 | 0.00 | ||
| 20260905080411 | 82 | 224 | 2.0 | 3.0 | 0.00 | 0.00 | 0.00 | ||
| 20260905073912 | 82 | 269 | 1.0 | 3.0 | 0.00 | 0.00 | 0.00 | ||
| 20260905073411 | 82 | 245 | 1.0 | 2.0 | 0.00 | 0.00 | 0.00 | ||
| 20260905070412 | 83 | 277 | 1.0 | 4.0 | 0.00 | 0.00 | 0.00 | ||
| 20260905065412 | 83 | 221 | 0.0 | 3.0 | 0.00 | 0.00 | 0.00 | ||
| 20260905064411 | 84 | 246 | 3.0 | 3.0 | 0.00 | 0.00 | 0.00 | ||
| 20260905063412 | 84 | 183 | 0.0 | 0.0 | 0.00 | 0.00 | 0.00 | ||
| 20260905062412 | 84 | 194 | 2.0 | 1.0 | 0.00 | 0.00 | 0.00 | ||
| 20260905061411 | 85 | 220 | 0.0 | 0.0 | 0.00 | 0.00 | 0.00 | ||
| 20260905060447 | 85 | 228 | 2.0 | 5.0 | 0.00 | 0.00 | 0.00 | ||
| 20260905060412 | 85 | 228 | 2.0 | 5.0 | 0.00 | 0.00 | 0.00 | ||
| 20260905054412 | 85 | 245 | 5.0 | 8.0 | 0.00 | 0.00 | 0.00 | ||
| 20260905053421 | 86 | 241 | 2.0 | 2.0 | 0.00 | 0.00 | 0.00 | ||
| 20260905053412 | 86 | 241 | 2.0 | 2.0 | 0.00 | 0.00 | 0.00 | ||
| 20260905052412 | 86 | 225 | 3.0 | 7.0 | 0.00 | 0.00 | 0.00 | ||
| 20260905051412 | 86 | 228 | 1.0 | 3.0 | 0.00 | 0.00 | 0.00 | ||
| 20260905050413 | 86 | 218 | 3.0 | 5.0 | 0.00 | 0.00 | 0.00 | ||
| 20260905045412 | 86 | 260 | 3.0 | 2.0 | 0.00 | 0.00 | 0.00 | ||
| 20260905044412 | 87 | 138 | 0.0 | 1.0 | 0.00 | 0.00 | 0.00 | ||
| 20260905043414 | 88 | 241 | 3.0 | 3.0 | 0.00 | 0.00 | 0.00 | ||
| 20260905041413 | 88 | 238 | 1.0 | 3.0 | 0.00 | 0.00 | 0.00 | ||
| 20260905040412 | 89 | 170 | 0.0 | 2.0 | 0.00 | 0.00 | 0.00 | ||
| 20260905035413 | 89 | 244 | 2.0 | 1.0 | 0.00 | 0.00 | 0.00 | ||
| 20260905033412 | 89 | 170 | 2.0 | 3.0 | 0.00 | 0.00 | 0.00 | ||
| 20260905032413 | 90 | 163 | 2.0 | 5.0 | 0.00 | 0.00 | 0.00 | ||
| 20260905030913 | 90 | 58 | 1.0 | 1.0 | 0.00 | 0.00 | 0.00 | ||
| 20260905025412 | 91 | 168 | 3.0 | 5.0 | 0.00 | 0.00 | 0.00 | ||
| 20260905024914 | 91 | 163 | 2.0 | 4.0 | 0.00 | 0.00 | 0.00 | ||
| 20260905024412 | 91 | 169 | 0.0 | 0.0 | 0.00 | 0.00 | 0.00 | ||
| 20260905023412 | 91 | 158 | 0.0 | 3.0 | 0.00 | 0.00 | 0.00 | ||
| 20260905022914 | 91 | 193 | 1.0 | 2.0 | 0.00 | 0.00 | 0.00 | ||
| 20260905022412 | 91 | 151 | 1.0 | 4.0 | 0.00 | 0.00 | 0.00 | ||
| 20260905021413 | 92 | 229 | 2.0 | 2.0 | 0.00 | 0.00 | 0.00 | ||
| 20260905015413 | 92 | 193 | 3.0 | 2.0 | 0.00 | 0.00 | 0.00 | ||
| 20260905014915 | 92 | 55 | 3.0 | 3.0 | 0.00 | 0.00 | 0.00 | ||
| 20260905014413 | 94 | 131 | 1.0 | 0.0 | 0.00 | 0.00 | 0.00 |